This demonstration page uses our WeatherBlox Daily Observations layout. Learn more.

Left ArrowRight Arrow

Hourly Observations for July 22, 2015

Temp ( °F °C ) Dew Point ( °F °C ) Humidity (%) Winds ( mph kmh ) Pressure ( in mb ) Visibility ( mi km ) Precip ( " mm )
12:53 am 00:53 Clear 85 29.4 54 12.2 35 35 SW 8 13 29.68 1005 10 16 0.00 0.00
1:53 am 01:53 Mostly Cloudy 82 27.8 57 13.9 42 42 SSE 10 17 29.68 1005 10 16 0.00 0.00
2:53 am 02:53 Clear 78 25.6 56 13.3 47 47 SSE 8 13 29.70 1006 10 16 0.00 0.00
3:53 am 03:53 Clear 77 25 54 12.2 45 45 SSE 10 17 29.71 1006 10 16 0.00 0.00
4:53 am 04:53 Clear 75 23.9 52 11.1 45 45 SW 9 15 29.71 1006 10 16 0.00 0.00
5:53 am 05:53 Clear 74 23.3 51 10.6 45 45 SW 6 9 29.73 1007 10 16 0.00 0.00
6:53 am 06:53 Sunny 74 23.3 52 11.1 46 46 S 5 7 29.75 1007 10 16 0.00 0.00
7:53 am 07:53 Sunny 74 23.3 52 11.1 46 46 SW 6 9 29.76 1008 10 16 0.00 0.00
8:53 am 08:53 Sunny 76 24.4 53 11.7 45 45 SSW 6 9 29.75 1008 10 16 0.00 0.00
9:53 am 09:53 Sunny 79 26.1 52 11.1 39 39 SW 7 11 29.75 1007 10 16 0.00 0.00
10:53 am 10:53 Sunny 82 27.8 52 11.1 35 35 VRB 5 7 29.74 1007 10 16 0.00 0.00
11:53 am 11:53 Sunny 87 30.6 53 11.7 31 31 SSW 8 13 29.73 1007 10 16 0.00 0.00
12:53 pm 12:53 Sunny 89 31.7 47 8.3 23 23 SSE 16 26 29.72 1006 10 16 0.00 0.00
1:53 pm 13:53 Sunny 92 33.3 47 8.3 21 21 SSW 12 19 29.69 1006 10 16 0.00 0.00
2:53 pm 14:53 Sunny 93 33.9 45 7.2 19 19 SSE 10 17 29.67 1005 10 16 0.00 0.00
3:53 pm 15:53 Sunny 94 34.4 50 10 22 22 SSE 9 15 29.65 1004 10 16 0.00 0.00
4:53 pm 16:53 Sunny 96 35.6 51 10.6 22 22 S 17 28 29.64 1004 10 16 0.00 0.00
5:53 pm 17:53 Sunny 94 34.4 52 11.1 24 24 S 18 30 29.63 1003 10 16 0.00 0.00
6:53 pm 18:53 Sunny 92 33.3 52 11.1 26 26 S 15 24 29.63 1003 10 16 0.00 0.00
7:53 pm 19:53 Sunny 88 31.1 56 13.3 34 34 S 14 22 29.66 1004 10 16 0.00 0.00
8:53 pm 20:53 Clear 87 30.6 35 1.7 16 16 S 10 17 29.67 1005 10 16 0.00 0.00
9:53 pm 21:53 Clear 85 29.4 41 5 21 21 SSW 12 19 29.70 1006 10 16 0.00 0.00
10:53 pm 22:53 Clear 82 27.8 43 6.1 25 25 SSW 13 20 29.72 1007 10 16 0.00 0.00
11:53 pm 23:53 Clear 79 26.1 45 7.2 30 30 SW 7 11 29.75 1008 10 16 0.00 0.00

Powered by AerisWeather